Total_Precipitation_Accumulation
2.26 2.55 3.38 4.29 4.90 3.75 2.74 2.25 1.93 1.70 1.39 1.04 0.82 0.84 1.16 1.63 1.95 1.99 1.85 1.65 1.04 0.95 1.03 1.44 1.71 1.60 1.48 1.40 1.38 1.38 1.33 1.31 1.35 1.37 1.35 1.22 1.25 1.35 1.39 1.35 1.26 1.25 1.19 1.16 1.11 1.11 1.11 1.07 1.10
1.97 2.74 3.95 4.88 4.16 2.93 2.51 2.04 1.79 1.49 1.12 0.85 0.73 0.65 0.75 0.62 0.60 1.07 1.97 1.90 1.06 0.83 0.95 1.33 1.79 1.70 1.61 1.56 1.56 1.58 1.44 1.29 1.25 1.19 1.14 1.10 1.15 1.29 1.37 1.41 1.31 1.32 1.25 1.15 1.07 1.04 1.09 1.09 1.13
2.26 3.16 4.39 4.47 3.15 2.45 2.42 1.86 1.40 1.03 0.74 0.78 0.80 0.68 0.74 0.87 0.99 1.47 1.88 1.36 0.98 0.85 0.94 1.44 1.91 1.74 1.63 1.61 1.69 1.65 1.47 1.31 1.19 1.10 1.08 1.04 1.12 1.24 1.32 1.24 1.22 1.29 1.28 1.24 1.24 1.20 1.22 1.19 1.26
2.52 3.61 3.99 3.39 2.58 1.99 1.73 1.46 1.13 0.98 0.68 0.45 0.62 0.81 0.71 0.96 1.13 1.36 1.32 0.95 0.74 0.76 0.85 1.29 1.84 1.70 1.55 1.49 1.62 1.56 1.41 1.38 1.28 1.19 1.16 1.15 1.26 1.46 1.41 1.26 1.27 1.28 1.34 1.26 1.28 1.28 1.31 1.33 1.36
2.79 3.58 3.57 3.21 2.40 2.06 1.55 1.22 1.02 0.98 0.79 0.53 0.53 0.83 0.92 1.26 1.24 1.23 1.15 0.95 0.75 0.76 0.80 1.08 1.58 1.57 1.43 1.38 1.46 1.44 1.42 1.42 1.29 1.22 1.23 1.23 1.29 1.49 1.61 1.50 1.45 1.45 1.44 1.34 1.27 1.25 1.23 1.29 1.39
3.21 3.29 3.37 3.16 2.59 2.27 1.76 1.29 0.94 0.85 0.72 0.58 0.58 0.85 1.16 1.57 1.45 1.39 1.20 1.11 0.98 0.85 0.76 0.89 1.35 1.42 1.33 1.35 1.38 1.38 1.34 1.28 1.15 1.15 1.21 1.23 1.26 1.39 1.54 1.55 1.55 1.53 1.46 1.43 1.37 1.35 1.29 1.31 1.31
2.98 2.94 2.68 2.28 2.43 2.55 1.83 1.16 1.07 1.00 0.93 0.80 0.60 0.89 1.24 1.67 1.54 1.24 1.22 1.30 1.38 1.22 1.02 0.96 1.06 1.12 1.20 1.31 1.35 1.47 1.51 1.30 1.12 1.06 1.08 1.11 1.13 1.22 1.32 1.42 1.46 1.45 1.45 1.45 1.40 1.37 1.38 1.42 1.36
2.42 2.48 2.26 2.19 2.42 2.58 1.58 1.02 0.86 0.83 0.85 0.57 0.50 0.81 1.05 1.28 1.38 1.31 1.26 1.33 1.31 1.26 1.19 1.11 1.12 1.08 1.05 1.13 1.37 1.64 1.72 1.53 1.25 1.11 1.05 1.11 1.09 1.11 1.23 1.27 1.44 1.52 1.52 1.55 1.55 1.50 1.43 1.50 1.49
2.07 2.40 2.45 2.38 2.31 2.03 1.24 0.94 0.74 0.54 0.56 0.51 0.41 0.61 0.80 0.82 1.04 1.24 1.25 1.26 1.22 1.17 1.19 1.12 1.12 1.15 1.21 1.23 1.34 1.65 1.78 1.72 1.32 1.10 1.06 0.99 0.88 0.98 1.09 1.10 1.46 1.63 1.73 1.73 1.71 1.63 1.52 1.46 1.45
2.11 2.33 2.19 1.78 1.56 1.29 0.99 0.85 0.69 0.72 0.81 0.71 0.54 0.62 0.77 0.83 0.92 1.10 1.14 1.05 1.01 0.99 1.02 1.04 1.03 1.00 1.01 1.04 1.39 1.65 1.51 1.57 1.25 1.16 1.07 1.01 1.07 1.09 0.96 0.99 1.35 1.59 1.76 1.75 1.68 1.64 1.50 1.29 1.11
1.78 1.89 1.56 1.34 1.14 0.92 0.86 0.81 0.62 0.74 0.93 0.73 0.55 0.62 0.76 0.86 0.96 0.98 1.02 0.97 0.90 0.88 0.79 0.77 0.82 0.78 0.78 0.88 1.05 1.35 1.57 1.58 1.51 1.42 1.31 1.27 1.18 1.02 0.93 0.99 1.10 1.28 1.39 1.33 1.42 1.42 1.29 1.16 1.08
1.55 1.48 1.28 1.15 0.86 0.90 0.90 0.76 0.67 0.66 0.70 0.51 0.46 0.52 0.69 0.86 0.99 0.94 0.97 0.98 0.90 0.93 0.92 0.75 0.67 0.67 0.66 0.71 0.85 1.09 1.28 1.38 1.37 1.27 1.15 1.34 1.29 1.08 1.00 1.13 1.22 1.28 1.33 1.49 1.54 1.49 1.35 1.21 1.09
1.43 1.49 1.20 0.99 0.85 0.90 0.84 0.77 0.66 0.67 0.56 0.44 0.44 0.58 0.79 0.97 1.03 1.02 0.96 0.96 0.95 0.95 0.99 0.87 0.69 0.62 0.65 0.68 0.73 0.81 1.01 1.11 1.09 1.22 1.15 1.20 1.21 1.10 1.03 1.07 1.27 1.32 1.36 1.58 1.69 1.52 1.42 1.42 1.34
1.26 1.21 1.16 0.99 0.91 0.93 0.94 0.77 0.66 0.78 0.67 0.57 0.62 0.74 0.90 1.00 1.00 0.96 0.88 0.85 0.84 0.86 0.90 0.84 0.73 0.70 0.68 0.66 0.62 0.63 0.67 0.82 0.84 0.84 0.81 1.00 1.14 1.12 1.16 1.09 1.20 1.39 1.47 1.54 1.58 1.53 1.44 1.39 1.39
1.04 1.12 1.26 1.16 1.11 1.07 0.96 1.03 0.80 0.81 0.80 0.68 0.67 0.73 0.93 0.91 0.89 0.86 0.78 0.71 0.66 0.72 0.76 0.79 0.78 0.77 0.75 0.75 0.73 0.67 0.67 0.71 0.77 0.84 0.83 0.93 1.06 1.14 1.15 1.06 1.12 1.30 1.52 1.53 1.52 1.51 1.53 1.36 1.27
1.21 1.49 1.74 1.42 1.21 1.18 1.09 1.23 0.89 0.88 0.83 0.73 0.70 0.68 0.77 0.68 0.68 0.70 0.66 0.60 0.56 0.55 0.59 0.66 0.67 0.70 0.73 0.77 0.81 0.75 0.77 0.78 0.76 0.82 0.80 0.81 0.96 1.13 1.21 1.16 1.13 1.30 1.54 1.73 1.79 1.69 1.63 1.51 1.41
1.54 1.64 1.57 1.47 1.16 1.17 1.10 1.14 0.96 0.82 0.78 0.68 0.66 0.67 0.63 0.56 0.53 0.57 0.56 0.51 0.45 0.43 0.42 0.47 0.53 0.59 0.66 0.73 0.82 0.79 0.80 0.92 0.99 0.89 0.78 0.82 0.95 1.06 1.27 1.39 1.33 1.36 1.57 1.67 1.67 1.70 1.60 1.59 1.53
1.25 1.24 1.24 1.33 1.10 1.01 0.99 0.92 0.93 0.77 0.63 0.57 0.57 0.57 0.54 0.51 0.44 0.44 0.46 0.47 0.42 0.39 0.37 0.39 0.47 0.50 0.51 0.62 0.78 0.88 0.82 0.89 1.10 1.14 1.14 1.18 1.23 1.27 1.43 1.55 1.56 1.56 1.65 1.67 1.80 1.97 1.78 1.60 1.59
0.91 0.92 0.97 0.90 0.76 0.87 0.88 0.82 0.86 0.80 0.65 0.51 0.49 0.53 0.49 0.45 0.46 0.39 0.36 0.43 0.43 0.36 0.33 0.37 0.43 0.46 0.47 0.53 0.66 0.76 0.84 1.01 1.21 1.26 1.33 1.47 1.49 1.50 1.63 1.75 1.80 1.74 1.67 1.76 1.93 2.30 2.16 1.80 1.63
0.84 0.83 0.87 0.77 0.66 0.70 0.79 0.84 0.82 0.74 0.67 0.55 0.48 0.40 0.39 0.39 0.37 0.32 0.30 0.34 0.35 0.33 0.31 0.32 0.40 0.50 0.55 0.58 0.72 0.86 1.08 1.20 1.34 1.49 1.49 1.52 1.56 1.60 1.69 1.91 2.02 1.96 1.96 2.05 2.09 2.35 2.50 2.22 2.02
0.81 0.75 0.70 0.73 0.69 0.68 0.73 0.94 0.88 0.80 0.66 0.55 0.46 0.37 0.30 0.33 0.32 0.25 0.27 0.29 0.30 0.30 0.36 0.37 0.46 0.67 0.85 0.93 1.14 1.42 1.67 1.73 1.66 1.66 1.72 1.70 1.73 1.79 1.77 1.89 2.08 2.08 2.07 2.11 2.29 2.61 2.92 2.84 2.55
0.83 0.58 0.50 0.62 0.75 0.86 0.71 0.99 0.85 0.78 0.70 0.54 0.46 0.41 0.33 0.35 0.39 0.30 0.28 0.31 0.29 0.32 0.43 0.60 0.80 1.09 1.32 1.43 1.60 1.82 1.93 1.95 1.88 1.89 1.89 1.87 1.77 1.70 1.70 1.83 2.03 2.18 2.30 2.39 2.46 2.46 2.84 3.11 2.92
0.65 0.52 0.52 0.62 0.73 0.76 0.64 0.77 0.72 0.63 0.69 0.61 0.55 0.49 0.44 0.43 0.42 0.43 0.42 0.47 0.48 0.57 0.78 1.10 1.35 1.55 1.68 1.71 1.78 1.96 2.11 2.26 2.27 2.16 2.02 1.91 1.88 1.80 1.71 1.75 1.82 1.88 1.99 2.14 2.28 2.36 2.60 2.80 2.94
0.53 0.59 0.63 0.65 0.74 0.86 0.60 0.60 0.72 0.60 0.58 0.61 0.62 0.53 0.48 0.46 0.47 0.57 0.69 0.82 0.91 1.00 1.19 1.42 1.56 1.70 1.67 1.64 1.67 1.79 1.97 2.12 2.15 2.18 2.15 2.02 1.89 1.78 1.67 1.62 1.71 1.73 1.74 1.90 2.02 2.14 2.41 2.60 2.73
0.58 0.76 0.96 0.98 0.95 0.82 0.50 0.59 0.62 0.44 0.41 0.49 0.55 0.54 0.51 0.47 0.55 0.76 0.92 1.08 1.19 1.28 1.38 1.42 1.41 1.47 1.48 1.45 1.46 1.52 1.57 1.60 1.67 1.78 1.72 1.58 1.47 1.42 1.40 1.32 1.37 1.51 1.56 1.75 1.84 1.79 1.86 2.05 2.28
0.54 0.58 0.84 0.95 0.84 0.72 0.55 0.72 0.64 0.46 0.43 0.41 0.45 0.53 0.61 0.70 0.82 0.95 1.06 1.17 1.21 1.33 1.38 1.34 1.29 1.28 1.21 1.16 1.17 1.17 1.20 1.24 1.26 1.28 1.24 1.17 1.12 1.09 1.06 1.06 1.07 1.14 1.22 1.44 1.67 1.67 1.68 1.73 1.83
0.45 0.45 0.48 0.65 0.63 0.67 0.62 0.72 0.65 0.45 0.42 0.41 0.42 0.52 0.66 0.83 1.08 1.25 1.26 1.16 1.09 1.14 1.22 1.19 1.14 1.07 0.99 0.92 0.94 0.95 1.01 1.03 0.99 0.97 0.92 0.91 0.85 0.84 0.82 0.85 0.95 1.02 1.01 1.11 1.26 1.45 1.52 1.59 1.66
0.35 0.39 0.49 0.72 0.85 0.86 0.72 0.79 0.74 0.56 0.50 0.47 0.50 0.62 0.79 0.95 1.16 1.43 1.54 1.42 1.15 0.99 1.03 0.99 0.97 0.98 0.96 0.91 0.92 0.91 0.82 0.74 0.73 0.75 0.69 0.68 0.73 0.76 0.76 0.73 0.75 0.83 0.86 0.96 1.09 1.15 1.26 1.35 1.50
0.35 0.41 0.51 0.66 0.68 0.90 1.14 1.13 0.84 0.73 0.67 0.66 0.70 0.76 0.83 1.07 1.36 1.49 1.50 1.37 1.20 0.94 0.89 0.87 0.84 0.85 0.91 0.84 0.87 0.89 0.78 0.64 0.60 0.56 0.52 0.53 0.56 0.60 0.60 0.63 0.70 0.73 0.76 0.78 0.79 0.84 0.92 1.00 1.11
0.33 0.40 0.54 0.82 0.83 0.79 1.00 1.04 0.67 0.71 0.81 0.76 0.82 0.91 0.94 1.02 1.05 1.03 1.12 1.13 1.06 0.93 0.85 0.91 0.95 0.95 0.86 0.78 0.78 0.79 0.73 0.63 0.63 0.56 0.47 0.49 0.54 0.55 0.55 0.59 0.63 0.64 0.70 0.74 0.73 0.72 0.76 0.88 0.95